Middletown, OH

12:16 PM EST on November 17, 2017 (GMT -0500)
Hook Field Municipal

Weather History for KMWO - December, 2012

Change the Weather History Date:

Monday, December 31, 2012

  Actual Average (KFFO) Record (KFFO)
Temperature  
Mean Temperature 28 °F -  
Max Temperature 35 °F 35 °F 63 °F (2010)
Min Temperature 20 °F 21 °F 10 °F (1998)
Degree Days  
Heating Degree Days 38    
Moisture  
Dew Point 29 °F    
Average Humidity 95    
Maximum Humidity 100    
Minimum Humidity 82    
Precipitation  
Precipitation 0.00 in - - ()
Sea Level Pressure  
Sea Level Pressure 30.18 in    
Wind  
Wind Speed 7 mph (SW)    
Max Wind Speed 17 mph    
Max Gust Speed 21 mph    
Visibility 7 miles    
Events Snow    
Averages and records for this station are not official NWS values.
T = Trace of Precipitation, MM = Missing Value Source: NWS Daily Summary

Daily Weather History Graph

Daily Weather History Graph

Search for Another Location

Airport or City:

Trip Planner

Search our weather history database for the weather conditions in past years. The results will help you decide how hot, cold, wet, or windy it might be!

Date:

Astronomy

Dec. 31, 2012 Rise Set
Actual Time 7:58 AM EST 5:23 PM EST
Civil Twilight 7:27 AM EST 5:54 PM EST
Nautical Twilight 6:54 AM EST 6:27 PM EST
Astronomical Twilight 6:21 AM EST 7:00 PM EST
Moon 8:52 PM EST (12/31) 9:39 AM EST (12/31)
Length of Visible Light 10h 26m
Length of Day
9h 25m
Waning Gibbous, 90% of the Moon is Illuminated
Dec 31
Waning Gibbous
Jan 4
Last Quarter
Jan 11
New
Jan 18
First Quarter
Jan 26
Full

Hourly Weather History & Observations

Time (EST) Temp. Windchill Dew Point Humidity Pressure Visibility Wind Dir Wind Speed Gust Speed Precip Events Conditions
12:15 AM 22.8 °F 18.2 °F 22.8 °F 100% 30.35 in 7.0 mi WSW 3.5 mph - N/A   Clear
12:35 AM 21.9 °F - 21.9 °F 100% 30.34 in 7.0 mi Calm Calm - N/A   Clear
12:55 AM 20.3 °F 12.5 °F 20.3 °F 100% 30.31 in 5.0 mi SSW 5.8 mph - N/A   Clear
1:15 AM 22.5 °F 15.1 °F 22.3 °F 99% 30.29 in 7.0 mi SW 5.8 mph - N/A   Clear
1:35 AM 22.1 °F 17.4 °F 21.4 °F 97% 30.29 in 7.0 mi WSW 3.5 mph - N/A   Clear
1:55 AM 22.8 °F 16.7 °F 22.8 °F 100% 30.29 in 7.0 mi SW 4.6 mph - N/A   Clear
2:15 AM 22.8 °F 16.7 °F 22.6 °F 99% 30.29 in 7.0 mi WSW 4.6 mph - N/A   Clear
2:35 AM 22.3 °F 14.9 °F 22.1 °F 99% 30.27 in 7.0 mi SSW 5.8 mph - N/A   Clear
2:55 AM 21.6 °F 14.0 °F 21.6 °F 100% 30.27 in 7.0 mi SSW 5.8 mph - N/A   Clear
3:15 AM 20.5 °F 14.0 °F 20.5 °F 100% 30.28 in 7.0 mi WSW 4.6 mph - N/A   Clear
3:35 AM 21.9 °F - 21.9 °F 100% 30.28 in 7.0 mi Calm Calm - N/A   Clear
3:55 AM 22.8 °F 18.2 °F 22.8 °F 100% 30.27 in 7.0 mi SSW 3.5 mph - N/A   Clear
4:15 AM 21.6 °F 15.3 °F 21.6 °F 100% 30.25 in 7.0 mi SSW 4.6 mph - N/A   Clear
4:35 AM 24.8 °F 16.9 °F 24.4 °F 99% 30.25 in 10.0 mi SW 6.9 mph - N/A   Clear
4:55 AM 22.8 °F 14.5 °F 22.8 °F 100% 30.25 in 7.0 mi SW 6.9 mph - N/A   Clear
5:15 AM 22.8 °F 16.7 °F 22.6 °F 99% 30.25 in 7.0 mi SW 4.6 mph - N/A   Clear
5:35 AM 22.8 °F - 22.8 °F 100% 30.25 in 7.0 mi Calm Calm - N/A   Clear
5:55 AM 22.8 °F 16.7 °F 22.6 °F 99% 30.24 in 10.0 mi SW 4.6 mph - N/A   Clear
6:15 AM 25.2 °F 18.3 °F 25.0 °F 99% 30.24 in 7.0 mi SSW 5.8 mph - N/A   Clear
6:35 AM 27.9 °F 21.5 °F 26.6 °F 95% 30.24 in 10.0 mi SSW 5.8 mph - N/A   Clear
6:55 AM 27.9 °F 19.8 °F 26.6 °F 95% 30.23 in 10.0 mi SW 8.1 mph - N/A   Clear
7:15 AM 27.9 °F 20.6 °F 26.6 °F 95% 30.23 in 10.0 mi WSW 6.9 mph - N/A   Clear
7:55 AM 27.9 °F 19.1 °F 25.5 °F 91% 30.23 in 10.0 mi SW 9.2 mph - N/A   Clear
8:15 AM 30.2 °F 20.8 °F 27.1 °F 88% 30.22 in 10.0 mi SW 11.5 mph - N/A   Clear
8:35 AM 32.5 °F 23.2 °F 29.3 °F 88% 30.21 in 10.0 mi SW 12.7 mph - N/A   Scattered Clouds
8:55 AM 32.5 °F 23.2 °F 29.1 °F 87% 30.20 in 10.0 mi SW 12.7 mph - N/A   Scattered Clouds
9:15 AM 32.5 °F 22.7 °F 28.9 °F 87% 30.20 in 10.0 mi SW 13.8 mph - N/A   Mostly Cloudy
9:35 AM 32.5 °F 23.2 °F 28.4 °F 85% 30.20 in 10.0 mi SW 12.7 mph - N/A   Overcast
9:55 AM 32.5 °F 22.3 °F 28.2 °F 84% 30.20 in 10.0 mi SW 15.0 mph - N/A   Overcast
10:15 AM 32.5 °F 21.5 °F 28.2 °F 84% 30.20 in 10.0 mi SW 17.3 mph - N/A   Overcast
10:35 AM 32.5 °F 21.5 °F 28.2 °F 84% 30.21 in 10.0 mi SW 17.3 mph - N/A   Overcast
10:55 AM 32.5 °F 21.5 °F 28.2 °F 84% 30.21 in 10.0 mi SW 17.3 mph - N/A   Overcast
11:15 AM 32.5 °F 22.3 °F 27.9 °F 83% 30.20 in 10.0 mi SW 15.0 mph 20.7 mph N/A   Overcast
11:35 AM 32.5 °F 22.7 °F 27.9 °F 83% 30.20 in 10.0 mi SW 13.8 mph - N/A   Overcast
11:55 AM 32.7 °F 23.9 °F 28.2 °F 83% 30.20 in 10.0 mi SW 11.5 mph - N/A   Overcast
12:15 PM 33.6 °F 26.2 °F 29.1 °F 84% 30.18 in 10.0 mi SW 9.2 mph - N/A   Overcast
12:35 PM 34.5 °F 26.7 °F 29.8 °F 83% 30.17 in 10.0 mi SW 10.4 mph - N/A   Overcast
12:55 PM 35.1 °F 28.6 °F 30.0 °F 82% 30.15 in 10.0 mi SW 8.1 mph - N/A   Overcast
1:15 PM 35.1 °F 30.1 °F 30.0 °F 82% 30.12 in 10.0 mi SW 5.8 mph - N/A   Overcast
1:35 PM 35.1 °F 29.3 °F 30.4 °F 83% 30.12 in 10.0 mi SW 6.9 mph - N/A   Overcast
1:55 PM 35.1 °F 27.9 °F 30.9 °F 85% 30.11 in 3.0 mi WSW 9.2 mph - N/A Snow Light Snow
2:15 PM 35.1 °F 29.3 °F 32.4 °F 90% 30.12 in 4.0 mi WSW 6.9 mph - N/A Snow Light Snow
2:35 PM 35.1 °F 27.9 °F 32.9 °F 92% 30.12 in 3.0 mi WSW 9.2 mph - N/A Snow Light Snow
2:55 PM 33.8 °F 25.8 °F 32.2 °F 94% 30.12 in 2.5 mi WSW 10.4 mph - N/A Snow Light Snow
3:15 PM 34.9 °F 27.1 °F 33.1 °F 93% 30.13 in 7.0 mi SW 10.4 mph - N/A Snow Light Snow
3:35 PM 35.1 °F 26.9 °F 33.4 °F 94% 30.13 in 10.0 mi SW 11.5 mph - N/A   Overcast
3:55 PM 35.1 °F 27.9 °F 33.8 °F 95% 30.13 in 7.0 mi SW 9.2 mph - N/A   Overcast
4:15 PM 35.1 °F 28.6 °F 34.3 °F 97% 30.13 in 5.0 mi SW 8.1 mph - N/A Snow Light Snow
4:35 PM 33.8 °F 27.0 °F 33.8 °F 100% 30.13 in 4.0 mi SW 8.1 mph - N/A Snow Light Snow
4:55 PM 33.4 °F 27.3 °F 33.4 °F 100% 30.11 in 5.0 mi SW 6.9 mph - N/A   Overcast
5:15 PM 32.5 °F 29.3 °F 32.5 °F 100% 30.11 in 5.0 mi SW 3.5 mph - N/A   Overcast
5:35 PM 32.9 °F 28.5 °F 32.9 °F 100% 30.12 in 7.0 mi WSW 4.6 mph - N/A   Overcast
5:55 PM 32.5 °F 27.1 °F 32.5 °F 100% 30.11 in 5.0 mi SW 5.8 mph - N/A   Overcast
6:15 PM 32.5 °F 27.1 °F 32.5 °F 100% 30.11 in 4.0 mi SW 5.8 mph - N/A Snow Light Snow
6:35 PM 32.5 °F 24.8 °F 32.5 °F 100% 30.11 in 4.0 mi SSW 9.2 mph - N/A Snow Light Snow
6:55 PM 32.5 °F 24.2 °F 32.5 °F 100% 30.13 in 2.0 mi SW 10.4 mph - N/A Snow Light Snow
7:15 PM 32.5 °F 24.2 °F 32.5 °F 100% 30.11 in 3.0 mi SSW 10.4 mph - N/A Snow Light Snow
7:35 PM 32.5 °F 25.5 °F 32.5 °F 100% 30.11 in 7.0 mi SW 8.1 mph - N/A   Overcast
7:55 PM 32.5 °F 25.5 °F 32.5 °F 100% 30.11 in 7.0 mi SW 8.1 mph - N/A   Overcast
8:15 PM 32.9 °F 24.1 °F 32.9 °F 100% 30.10 in 10.0 mi SW 11.5 mph - N/A   Overcast
8:35 PM 33.8 °F 25.3 °F 33.8 °F 100% 30.10 in 10.0 mi SW 11.5 mph - N/A   Overcast
8:55 PM 33.8 °F 27.0 °F 33.8 °F 100% 30.09 in 10.0 mi SW 8.1 mph - N/A   Overcast
9:35 PM 33.8 °F 25.8 °F 33.8 °F 100% 30.09 in 10.0 mi SW 10.4 mph - N/A   Overcast
10:15 PM 34.0 °F 25.0 °F 34.0 °F 100% 30.09 in 10.0 mi SW 12.7 mph - N/A   Overcast
10:35 PM 33.8 °F 25.8 °F 33.8 °F 100% 30.08 in 7.0 mi SW 10.4 mph - N/A   Overcast
10:55 PM 33.3 °F 25.1 °F 33.3 °F 100% 30.08 in 4.0 mi SW 10.4 mph - N/A Snow Light Snow
11:15 PM 32.5 °F 26.2 °F 32.5 °F 100% 30.08 in 3.0 mi SW 6.9 mph - N/A Snow Light Snow
11:35 PM 32.5 °F 26.2 °F 32.5 °F 100% 30.08 in 5.0 mi SW 6.9 mph - N/A Snow Light Snow
11:55 PM 32.5 °F 24.8 °F 32.5 °F 100% 30.09 in 3.0 mi SW 9.2 mph - N/A Snow Light Snow